H1 CPF 2 NER 2024 5 22 9 143 01 glonass131 H2 1301901 9131 39155 2024 5 22 0 0 0 2024 5 25 23 45 0 900 1 1 0 0 0 1 H9 10 0 60452 0.00000 0 -7917112.845 -16870076.386 17498288.097 10 0 60452 900.00000 0 -6171543.662 -15418777.583 19432981.069 10 0 60452 1800.00000 0 -4143588.327 -13983893.700 20992668.234 10 0 60452 2700.00000 0 -1869557.037 -12621687.816 22147217.945 10 0 60452 3600.00000 0 603579.046 -11381830.405 22874257.626 10 0 60452 4500.00000 0 3219873.581 -10305371.954 23159603.001 10 0 60452 5400.00000 0 5916466.408 -9423089.012 22997537.442 10 0 60452 6300.00000 0 8625938.434 -8754271.645 22390935.884 10 0 60452 7200.00000 0 11278865.857 -8306002.651 21351230.011 10 0 60452 8100.00000 0 13806471.034 -8072959.265 19898213.785 10 0 60452 9000.00000 0 16143262.655 -8037746.970 18059690.860 10 0 60452 9900.00000 0 18229557.348 -8171753.419 15870968.124 10 0 60452 10800.00000 0 20013778.751 -8436488.870 13374202.364 10 0 60452 11700.00000 0 21454438.090 -8785359.105 10617609.993 10 0 60452 12600.00000 0 22521712.531 -9165798.104 7654552.774 10 0 60452 13500.00000 0 23198553.474 -9521671.891 4542515.417 10 0 60452 14400.00000 0 23481276.066 -9795852.466 1341993.738 10 0 60452 15300.00000 0 23379602.714 -9932852.466 -1884685.320 10 0 60452 16200.00000 0 22916156.552 -9881407.510 -5074588.362 10 0 60452 17100.00000 0 22125424.406 -9596894.458 -8165419.853 10 0 60452 18000.00000 0 21052231.981 -9043480.058 -11096759.880 10 0 60452 18900.00000 0 19749795.379 -8195905.536 -13811268.954 10 0 60452 19800.00000 0 18277431.928 -7040828.060 -16255833.821 10 0 60452 20700.00000 0 16698028.335 -5577659.143 -18382629.416 10 0 60452 21600.00000 0 15075375.068 -3818861.864 -20150073.968 10 0 60452 22500.00000 0 13471481.593 -1789692.433 -21523656.803 10 0 60452 23400.00000 0 11943987.938 472604.083 -22476621.379 10 0 60452 24300.00000 0 10543783.440 2920110.338 -22990489.562 10 0 60452 25200.00000 0 9312934.187 5496009.825 -23055416.869 10 0 60452 26100.00000 0 8283006.776 8136741.168 -22670372.286 10 0 60452 27000.00000 0 7473858.409 10774442.083 -21843140.208 10 0 60452 27900.00000 0 6892942.763 13339579.408 -20590145.887 10 0 60452 28800.00000 0 6535158.634 15763654.148 -18936109.560 10 0 60452 29700.00000 0 6383244.834 17981867.834 -16913537.857 10 0 60452 30600.00000 0 6408701.498 19935638.826 -14562064.338 10 0 60452 31500.00000 0 6573195.674 21574864.088 -11927653.923 10 0 60452 32400.00000 0 6830388.815 22859833.435 -9061688.390 10 0 60452 33300.00000 0 7128106.434 23762718.381 -6019952.208 10 0 60452 34200.00000 0 7410756.369 24268576.027 -2861539.602 10 0 60452 35100.00000 0 7621892.366 24375829.054 352295.207 10 0 60452 36000.00000 0 7706814.369 24096204.853 3559321.986 10 0 60452 36900.00000 0 7615096.215 23454139.283 6697529.943 10 0 60452 37800.00000 0 7302935.108 22485672.489 9706312.218 10 0 60452 38700.00000 0 6735225.373 21236884.777 12527617.747 10 0 60452 39600.00000 0 5887270.787 19761938.935 15107049.812 10 0 60452 40500.00000 0 4746065.023 18120810.872 17394892.081 10 0 60452 41400.00000 0 3311087.545 16376802.537 19347044.510 10 0 60452 42300.00000 0 1594582.052 14593939.326 20925853.249 10 0 60452 43200.00000 0 -378694.580 12834358.352 22100820.624 10 0 60452 44100.00000 0 -2572243.671 11155793.955 22849183.279 10 0 60452 45000.00000 0 -4939086.424 9609262.746 23156348.543 10 0 60452 45900.00000 0 -7423466.320 8237042.384 23016181.232 10 0 60452 46800.00000 0 -9962924.868 7071026.633 22431135.257 10 0 60452 47700.00000 0 -12490668.041 6131524.316 21412226.600 10 0 60452 48600.00000 0 -14938128.611 5426552.144 19978846.651 10 0 60452 49500.00000 0 -17237620.962 4951651.645 18158417.303 10 0 60452 50400.00000 0 -19324980.286 4690239.218 15985891.913 10 0 60452 51300.00000 0 -21142077.659 4614476.548 13503109.009 10 0 60452 52200.00000 0 -22639106.501 4686626.864 10758008.497 10 0 60452 53100.00000 0 -23776544.191 4860841.978 7803723.163 10 0 60452 54000.00000 0 -24526705.172 5085306.305 4697561.207 10 0 60452 54900.00000 0 -24874818.191 5304648.163 1499898.321 10 0 60452 55800.00000 0 -24819579.775 5462516.355 -1726999.477 10 0 60452 56700.00000 0 -24373158.069 5504211.941 -4920198.937 10 0 60452 57600.00000 0 -23560644.522 5379261.746 -8017343.574 10 0 60452 58500.00000 0 -22418974.842 5043821.824 -10957892.432 10 0 60452 59400.00000 0 -20995363.841 4462805.780 -13684327.157 10 0 60452 60300.00000 0 -19345320.155 3611644.310 -16143301.350 10 0 60452 61200.00000 0 -17530325.444 2477598.149 -18286707.194 10 0 60452 62100.00000 0 -15615277.452 1060565.921 -20072636.304 10 0 60452 63000.00000 0 -13665806.628 -626649.521 -21466214.196 10 0 60452 63900.00000 0 -11745581.436 -2558629.020 -22440290.752 10 0 60452 64800.00000 0 -9913717.658 -4698167.878 -22975972.527 10 0 60452 65700.00000 0 -8222402.056 -6997614.426 -23062986.451 10 0 60452 66600.00000 0 -6714830.985 -9400659.414 -22699868.316 10 0 60452 67500.00000 0 -5423550.395 -11844500.011 -21893973.425 10 0 60452 68400.00000 0 -4369265.782 -14262286.338 -20661310.602 10 0 60452 69300.00000 0 -3560170.139 -16585746.767 -19026204.532 10 0 60452 70200.00000 0 -2991815.315 -18747881.122 -17020794.902 10 0 60452 71100.00000 0 -2647528.924 -20685608.594 -14684384.019 10 0 60452 72000.00000 0 -2499355.677 -22342259.758 -12062647.530 10 0 60452 72900.00000 0 -2509479.960 -23669809.273 -9206725.318 10 0 60452 73800.00000 0 -2632066.501 -24630757.442 -6172211.746 10 0 60452 74700.00000 0 -2815438.838 -25199584.047 -3018066.061 10 0 60452 75600.00000 0 -3004501.780 -25363716.219 194535.128 10 0 60452 76500.00000 0 -3143304.590 -25123972.676 3403380.730 10 0 60452 77400.00000 0 -3177636.510 -24494468.521 6546420.628 10 0 60452 78300.00000 0 -3057545.724 -23501987.098 9562951.273 10 0 60452 79200.00000 0 -2739676.745 -22184847.114 12394769.659 10 0 60452 80100.00000 0 -2189329.311 -20591313.615 14987274.973 10 0 60452 81000.00000 0 -1382153.795 -18777619.530 17290498.620 10 0 60452 81900.00000 0 -305413.289 -16805679.814 19260044.915 10 0 60452 82800.00000 0 1041239.705 -14740592.128 20857926.504 10 0 60452 83700.00000 0 2645504.317 -12648026.113 22053280.501 10 0 60452 84600.00000 0 4482701.686 -10591607.427 22822953.303 10 0 60452 85500.00000 0 6516564.983 -8630402.695 23151944.091 10 0 60453 0.00000 0 8700518.424 -6816607.562 23033699.128 10 0 60453 900.00000 0 10979396.360 -5193530.901 22470250.969 10 0 60453 1800.00000 0 13291531.442 -3793959.892 21472199.331 10 0 60453 2700.00000 0 15571132.495 -2638970.069 20058532.227 10 0 60453 3600.00000 0 17750853.557 -1737232.455 18256288.751 10 0 60453 4500.00000 0 19764451.002 -1084846.542 16100067.452 10 0 60453 5400.00000 0 21549419.650 -665707.731 13631387.066 10 0 60453 6300.00000 0 23049498.691 -452395.601 10897909.190 10 0 60453 7200.00000 0 24216942.429 -407547.601 7952535.554 10 0 60453 8100.00000 0 25014459.459 -485661.973 4852395.479 10 0 60453 9000.00000 0 25416736.889 -635254.971 1657741.917 10 0 60453 9900.00000 0 25411482.852 -801281.576 -1569222.860 10 0 60453 10800.00000 0 24999940.599 -927716.758 -4765568.670 10 0 60453 11700.00000 0 24196849.725 -960186.474 -7868881.011 10 0 60453 12600.00000 0 23029853.860 -848534.600 -10818500.706 10 0 60453 13500.00000 0 21538378.205 -549214.079 -13556733.178 10 0 60453 14400.00000 0 19772023.455 -27397.611 -16030001.244 10 0 60453 15300.00000 0 17788544.022 741284.849 -18189916.411 10 0 60453 16200.00000 0 15651496.659 1769458.417 -19994245.448 10 0 60453 17100.00000 0 13427660.054 3057222.460 -21407751.531 10 0 60453 18000.00000 0 11184335.875 4591911.434 -22402892.138 10 0 60453 18900.00000 0 8986646.585 6348408.530 -22960359.397 10 0 60453 19800.00000 0 6894945.124 8289999.126 -23069452.210 10 0 60453 20700.00000 0 4962446.224 10369727.650 -22728273.395 10 0 60453 21600.00000 0 3233178.887 12532199.765 -21943749.014 10 0 60453 22500.00000 0 1740345.222 14715752.873 -20731470.925 10 0 60453 23400.00000 0 505152.823 16854902.369 -19115367.336 10 0 60453 24300.00000 0 -463832.846 18882959.809 -17127209.665 10 0 60453 25200.00000 0 -1170792.058 20734712.324 -14805967.267 10 0 60453 26100.00000 0 -1632209.707 22349050.627 -12197024.463 10 0 60453 27000.00000 0 -1875911.812 23671435.799 -9351276.879 10 0 60453 27900.00000 0 -1939623.813 24656102.463 -6324126.132 10 0 60453 28800.00000 0 -1869114.628 25267907.664 -3174393.641 10 0 60453 29700.00000 0 -1716007.216 25483750.114 36824.599 10 0 60453 30600.00000 0 -1535349.726 25293502.849 3247339.708 10 0 60453 31500.00000 0 -1383050.496 24700422.781 6395065.314 10 0 60453 32400.00000 0 -1313285.035 23721022.453 9419204.155 10 0 60453 33300.00000 0 -1375983.498 22384411.340 12261404.129 10 0 60453 34200.00000 0 -1614503.171 20731135.620 14866862.983 10 0 60453 35100.00000 0 -2063582.250 18811565.468 17185362.290 10 0 60453 36000.00000 0 -2747659.341 16683896.821 19172212.913 10 0 60453 36900.00000 0 -3679627.922 14411849.773 20789095.920 10 0 60453 37800.00000 0 -4860077.247 12062157.483 22004784.845 10 0 60453 38700.00000 0 -6277051.587 9701947.525 22795737.167 10 0 60453 39600.00000 0 -7906338.836 7396121.746 23146544.877 10 0 60453 40500.00000 0 -9712278.321 5204840.619 23050236.173 10 0 60453 41400.00000 0 -11649056.807 3181213.987 22508422.387 10 0 60453 42300.00000 0 -13662441.915 1369292.145 21531286.555 10 0 60453 43200.00000 0 -15691884.209 -197560.614 20137412.332 10 0 60453 44100.00000 0 -17672903.824 -1497842.800 18353454.457 10 0 60453 45000.00000 0 -19539665.105 -2522593.508 16213654.568 10 0 60453 45900.00000 0 -21227634.110 -3275541.898 13759208.993 10 0 60453 46800.00000 0 -22676209.286 -3772720.587 11037497.973 10 0 60453 47700.00000 0 -23831215.466 -4041557.394 8101188.796 10 0 60453 48600.00000 0 -24647155.822 -4119481.900 5007228.301 10 0 60453 49500.00000 0 -25089125.446 -4052104.174 1815742.973 10 0 60453 50400.00000 0 -25134303.520 -3891041.789 -1411132.397 10 0 60453 51300.00000 0 -24772958.260 -3691487.076 -4610474.367 10 0 60453 52200.00000 0 -24008919.227 -3509618.538 -7719813.955 10 0 60453 53100.00000 0 -22859494.204 -3399967.944 -10678377.108 10 0 60453 54000.00000 0 -21354831.929 -3412857.227 -13428296.098 10 0 60453 54900.00000 0 -19536756.053 -3592016.858 -15915765.720 10 0 60453 55800.00000 0 -17457118.905 -3972489.862 -18092119.131 10 0 60453 56700.00000 0 -15175744.715 -4578913.336 -19914800.080 10 0 60453 57600.00000 0 -12758049.870 -5424252.895 -21348210.626 10 0 60453 58500.00000 0 -10272441.834 -6509045.627 -22364416.415 10 0 60453 59400.00000 0 -7787607.750 -7821184.820 -22943695.032 10 0 60453 60300.00000 0 -5369808.106 -9336256.043 -23074916.571 10 0 60453 61200.00000 0 -3080290.246 -11018410.101 -22755749.479 10 0 60453 62100.00000 0 -972930.634 -12821735.191 -21992688.655 10 0 60453 63000.00000 0 907795.604 -14692069.203 -20800906.616 10 0 60453 63900.00000 0 2528434.011 -16569174.329 -19203932.373 10 0 60453 64800.00000 0 3867693.260 -18389181.107 -17233166.119 10 0 60453 65700.00000 0 4917065.760 -20087197.965 -14927241.128 10 0 60453 66600.00000 0 5680903.860 -21599975.824 -12331247.197 10 0 60453 67500.00000 0 6175952.288 -22868515.684 -9495832.490 10 0 60453 68400.00000 0 6430360.362 -23840510.158 -6476202.756 10 0 60453 69300.00000 0 6482219.124 -24472517.554 -3331038.587 10 0 60453 70200.00000 0 6377688.086 -24731778.933 -121352.550 10 0 60453 71100.00000 0 6168792.834 -24597604.031 3090691.284 10 0 60453 72000.00000 0 5910987.782 -24062270.196 6242972.632 10 0 60453 72900.00000 0 5660587.323 -23131398.976 9274602.608 10 0 60453 73800.00000 0 5472173.304 -21823796.587 12127081.817 10 0 60453 74700.00000 0 5396086.952 -20170766.390 14745408.088 10 0 60453 75600.00000 0 5476109.272 -18214922.898 17079114.376 10 0 60453 76500.00000 0 5747425.694 -16008556.712 19083219.000 10 0 60453 77400.00000 0 6234958.796 -13611617.581 20719072.035 10 0 60453 78300.00000 0 6952137.800 -11089397.812 21955083.698 10 0 60453 79200.00000 0 7900155.821 -8510009.857 22767322.491 10 0 60453 80100.00000 0 9067746.211 -5941760.039 23139972.866 10 0 60453 81000.00000 0 10431488.514 -3450524.366 23065644.359 10 0 60453 81900.00000 0 11956633.319 -1097232.412 22545526.195 10 0 60453 82800.00000 0 13598414.339 1064438.777 21589383.654 10 0 60453 83700.00000 0 15303796.193 2990066.878 20215394.798 10 0 60453 84600.00000 0 17013588.334 4646100.418 18449828.620 10 0 60453 85500.00000 0 18664840.004 6011021.777 16326568.319 10 0 60454 0.00000 0 20193418.636 7076007.900 13886486.368 10 0 60454 900.00000 0 21536666.392 7845060.426 11176679.372 10 0 60454 1800.00000 0 22636022.301 8334596.757 8249578.374 10 0 60454 2700.00000 0 23439502.343 8572519.379 5161945.535 10 0 60454 3600.00000 0 23903929.800 8596799.529 1973778.519 10 0 60454 4500.00000 0 23996820.534 8453634.430 -1252857.851 10 0 60454 5400.00000 0 23697840.690 8195255.421 -4455049.440 10 0 60454 6300.00000 0 22999772.110 7877480.121 -7570275.333 10 0 60454 7200.00000 0 21908941.515 7557113.581 -10537649.057 10 0 60454 8100.00000 0 20445092.546 7289310.611 -13299132.030 10 0 60454 9000.00000 0 18640703.877 7125013.765 -15800693.071 10 0 60454 9900.00000 0 16539780.866 7108578.529 -17993388.801 10 0 60454 10800.00000 0 14196171.220 7275689.367 -19834341.490 10 0 60454 11700.00000 0 11671475.955 7651657.578 -21287593.388 10 0 60454 12600.00000 0 9032644.587 8250175.195 -22324819.391 10 0 60454 13500.00000 0 6349356.999 9072579.084 -22925883.385 10 0 60454 14400.00000 0 3691303.389 10107656.987 -23079227.259 10 0 60454 15300.00000 0 1125477.669 11332003.571 -22782085.404 10 0 60454 16200.00000 0 -1286401.443 12710910.615 -22040521.521 10 0 60454 17100.00000 0 -3490233.577 14199752.434 -20869288.385 10 0 60454 18000.00000 0 -5441546.712 15745806.478 -19291514.995 10 0 60454 18900.00000 0 -7107091.535 17290430.675 -17338229.097 10 0 60454 19800.00000 0 -8465955.867 18771504.228 -15047726.277 10 0 60454 20700.00000 0 -9510155.648 20126027.908 -12464799.863 10 0 60454 21600.00000 0 -10244681.362 21292773.710 -9639848.323 10 0 60454 22500.00000 0 -10687001.887 22214872.312 -6627879.069 10 0 60454 23400.00000 0 -10866050.423 22842230.096 -3487429.234 10 0 60454 24300.00000 0 -10820738.603 23133675.286 -279425.220 10 0 60454 25200.00000 0 -10598064.174 23058744.723 2933996.506 10 0 60454 26100.00000 0 -10250893.942 22599038.217 6090684.550 10 0 60454 27000.00000 0 -9835516.458 21749085.775 9129661.164 10 0 60454 27900.00000 0 -9409067.683 20516693.284 11992282.349 10 0 60454 28800.00000 0 -9026937.335 18922753.712 14623348.576 10 0 60454 29700.00000 0 -8740263.684 17000532.682 16972146.614 10 0 60454 30600.00000 0 -8593620.350 14794458.345 18993404.477 10 0 60454 31500.00000 0 -8622990.368 12358465.331 20648143.294 10 0 60454 32400.00000 0 -8854110.841 9753960.141 21904411.776 10 0 60454 33300.00000 0 -9301256.326 7047490.241 22737890.977 10 0 60454 34200.00000 0 -9966511.444 4308210.835 23132359.030 10 0 60454 35100.00000 0 -10839563.500 1605251.241 23080007.656 10 0 60454 36000.00000 0 -11898025.100 -994913.068 22581604.400 10 0 60454 36900.00000 0 -13108275.410 -3430976.608 21646496.743 10 0 60454 37800.00000 0 -14426787.644 -5649106.174 20292456.598 10 0 60454 38700.00000 0 -15801890.473 -7604935.232 18545366.128 10 0 60454 39600.00000 0 -17175892.809 -9265168.196 16438748.461 10 0 60454 40500.00000 0 -18487485.885 -10608727.602 14013149.624 10 0 60454 41400.00000 0 -19674324.159 -11627395.419 11315380.867 10 0 60454 42300.00000 0 -20675678.017 -12325920.158 8397633.588 10 0 60454 43200.00000 0 -21435047.022 -12721583.516 5316481.972 10 0 60454 44100.00000 0 -21902622.879 -12843243.005 2131791.339 10 0 60454 45000.00000 0 -22037496.403 -12729889.390 -1094447.123 10 0 60454 45900.00000 0 -21809512.730 -12428778.955 -4299332.302 10 0 60454 46800.00000 0 -21200693.192 -11993219.381 -7420295.078 10 0 60454 47700.00000 0 -20206160.437 -11480103.671 -10396340.198 10 0 60454 48600.00000 0 -18834524.479 -10947298.128 -13169261.703 10 0 60454 49500.00000 0 -17107710.670 -10450997.236 -15684805.687 10 0 60454 50400.00000 0 -15060234.848 -10043160.275 -17893755.115 10 0 60454 51300.00000 0 -12737955.126 -9769141.049 -19752913.207 10 0 60454 52200.00000 0 -10196352.565 -9665613.823 -21225964.244 10 0 60454 53100.00000 0 -7498413.627 -9758885.507 -22284193.548 10 0 60454 54000.00000 0 -4712204.390 -10063667.066 -22907051.770 10 0 60454 54900.00000 0 -1908239.674 -10582356.910 -23082552.324 10 0 60454 55800.00000 0 843241.289 -11304866.520 -22807494.595 10 0 60454 56700.00000 0 3474977.493 -12208994.875 -22087509.521 10 0 60454 57600.00000 0 5925253.515 -13261334.473 -20936928.041 10 0 60454 58500.00000 0 8140224.393 -14418668.871 -19378476.623 10 0 60454 59400.00000 0 10075901.857 -15629800.764 -17442807.688 10 0 60454 60300.00000 0 11699720.762 -16837731.539 -15167875.988 10 0 60454 61200.00000 0 12991622.846 -17982098.710 -12598175.014 10 0 60454 62100.00000 0 13944615.781 -19001767.237 -9783850.026 10 0 60454 63000.00000 0 14564787.804 -19837464.904 -6779706.506 10 0 60454 63900.00000 0 14870781.170 -20434350.721 -3644134.529 10 0 60454 64800.00000 0 14892750.199 -20744408.892 -437970.812 10 0 60454 65700.00000 0 14670850.933 -20728568.815 2776679.124 10 0 60454 66600.00000 0 14253328.429 -20358463.624 5937635.860 10 0 60454 67500.00000 0 13694283.788 -19617755.285 8983835.524 10 0 60454 68400.00000 0 13051215.556 -18502972.473 11856491.843 10 0 60454 69300.00000 0 12382438.718 -17023827.704 14500209.824 10 0 60454 70200.00000 0 11744488.686 -15203001.524 16864031.454 10 0 60454 71100.00000 0 11189617.768 -13075403.129 18902395.390 10 0 60454 72000.00000 0 10763487.183 -10686937.804 20575994.290 10 0 60454 72900.00000 0 10503149.423 -8092831.209 21852515.396 10 0 60454 73800.00000 0 10435403.779 -5355578.029 22707251.952 10 0 60454 74700.00000 0 10575592.696 -2542597.485 23123575.038 10 0 60454 75600.00000 0 10926888.929 276310.268 23093257.517 10 0 60454 76500.00000 0 11480103.773 3031604.714 22616643.941 10 0 60454 77400.00000 0 12214025.753 5656636.171 21702662.467 10 0 60454 78300.00000 0 13096277.744 8090161.264 20368677.157 10 0 60454 79200.00000 0 14084659.352 10278640.312 18640181.515 10 0 60454 80100.00000 0 15128921.281 12178222.334 16550336.661 10 0 60454 81000.00000 0 16172900.223 13756335.343 14139360.363 10 0 60454 81900.00000 0 17156927.087 14992815.072 11453775.944 10 0 60454 82800.00000 0 18020409.106 15880523.627 8545533.122 10 0 60454 83700.00000 0 18704477.914 16425430.410 5471015.775 10 0 60454 84600.00000 0 19154591.675 16646149.987 2289954.456 10 0 60454 85500.00000 0 19322980.104 16572954.544 -935735.747 10 0 60455 0.00000 0 19170826.815 16246301.263 -4143168.933 10 0 60455 900.00000 0 18670093.591 15714935.869 -7269730.741 10 0 60455 1800.00000 0 17804906.314 15033653.202 -10254319.103 10 0 60455 2700.00000 0 16572440.252 14260809.932 -13038562.740 10 0 60455 3600.00000 0 14983264.247 13455696.869 -15567986.821 10 0 60455 4500.00000 0 13061126.691 12675884.320 -17793102.209 10 0 60455 5400.00000 0 10842190.558 11974655.526 -19670394.365 10 0 60455 6300.00000 0 8373748.761 11398639.398 -21163190.672 10 0 60455 7200.00000 0 5712473.869 10985745.044 -22242387.729 10 0 60455 8100.00000 0 2922276.338 10763487.090 -22887023.600 10 0 60455 9000.00000 0 71862.221 10747773.585 -23084683.639 10 0 60455 9900.00000 0 -2767905.949 10942207.781 -22831732.368 10 0 60455 10800.00000 0 -5526733.402 11337932.553 -22133367.786 10 0 60455 11700.00000 0 -8137587.693 11914022.603 -21003498.441 10 0 60455 12600.00000 0 -10539250.645 12638405.862 -19464447.315 10 0 60455 13500.00000 0 -12678621.475 13469272.927 -17546490.161 10 0 60455 14400.00000 0 -14512676.184 14356912.669 -15287239.196 10 0 60455 15300.00000 0 -16010003.351 15245894.330 -12730886.079 10 0 60455 16200.00000 0 -17151854.955 16077502.264 -9927320.651 10 0 60455 17100.00000 0 -17932671.577 16792319.315 -6931144.105 10 0 60455 18000.00000 0 -18360063.634 17332849.289 -3800597.024 10 0 60455 18900.00000 0 -18454253.124 17646068.052 -596423.966 10 0 60455 19800.00000 0 -18247002.705 17685796.471 2619302.974 10 0 60455 20700.00000 0 -17780079.946 17414796.554 5784378.823 10 0 60455 21600.00000 0 -17103323.379 16806504.231 8837656.038 10 0 60455 22500.00000 0 -16272392.809 15846327.694 11720208.486 10 0 60455 23400.00000 0 -15346298.647 14532458.402 14376448.064 10 0 60455 24300.00000 0 -14384813.391 12876162.009 16755174.253 10 0 60455 25200.00000 0 -13445872.453 10901537.620 18810538.493 10 0 60455 26100.00000 0 -12583071.428 8644755.267 20502906.943 10 0 60455 27000.00000 0 -11843362.488 6152802.361 21799607.132 10 0 60455 27900.00000 0 -11265044.221 3481789.391 22675546.006 10 0 60455 28800.00000 0 -10876127.288 694882.692 23113688.805 10 0 60455 29700.00000 0 -10693143.086 -2140053.067 23105390.420 10 0 60455 30600.00000 0 -10720444.901 -4953008.337 22650572.940 10 0 60455 31500.00000 0 -10950031.297 -7674475.576 21757745.331 10 0 60455 32400.00000 0 -11361900.524 -10238082.889 20443863.528 10 0 60455 33300.00000 0 -11924923.180 -12583107.629 18734031.650 10 0 60455 34200.00000 0 -12598199.137 -14656767.142 16661047.650 10 0 60455 35100.00000 0 -13332844.517 -16416192.144 14264799.439 10 0 60455 36000.00000 0 -14074136.175 -17830000.234 11591520.409 10 0 60455 36900.00000 0 -14763925.514 -18879402.802 8692916.229 10 0 60455 37800.00000 0 -15343221.115 -19558797.295 5625177.776 10 0 60455 38700.00000 0 -15754831.489 -19875817.982 2447897.888 10 0 60455 39600.00000 0 -15945955.462 -19850840.982 -777087.625 10 0 60455 40500.00000 0 -15870608.821 -19515962.609 -3986911.977 10 0 60455 41400.00000 0 -15491781.869 -18913492.896 -7118917.880 10 0 60455 42300.00000 0 -14783233.286 -18094027.451 -10111900.571 10 0 60455 43200.00000 0 -13730840.902 -17114179.529 -12907326.981 10 0 60455 44100.00000 0 -12333448.796 -16034069.453 -15450504.801 10 0 60455 45000.00000 0 -10603171.940 -14914679.480 -17691676.018 10 0 60455 45900.00000 0 -8565143.203 -13815188.330 -19587011.238 10 0 60455 46800.00000 0 -6256711.841 -12790400.570 -21099483.381 10 0 60455 47700.00000 0 -3726126.614 -11888381.812 -22199602.191 10 0 60455 48600.00000 0 -1030759.010 -11148401.476 -22865994.370 10 0 60455 49500.00000 0 1765058.082 -10599271.126 -23085817.776 10 0 60455 50400.00000 0 4592484.460 -10258148.813 -22855001.957 10 0 60455 51300.00000 0 7380815.440 -10129859.312 -22178311.250 10 0 60455 52200.00000 0 10060201.783 -10206757.504 -21069230.533 10 0 60455 53100.00000 0 12564332.281 -10469138.611 -19549677.527 10 0 60455 54000.00000 0 14832966.838 -10886175.435 -17649549.084 10 0 60455 54900.00000 0 16814214.882 -11417340.292 -15406112.238 10 0 60455 55800.00000 0 18466465.313 -12014248.971 -12863253.790 10 0 60455 56700.00000 0 19759889.562 -12622846.456 -10070604.784 10 0 60455 57600.00000 0 20677457.725 -13185840.297 -7082558.453 10 0 60455 58500.00000 0 21215428.540 -13645277.652 -3957202.012 10 0 60455 59400.00000 0 21383296.200 -13945156.737 -755183.882 10 0 60455 60300.00000 0 21203199.626 -14033962.734 2461461.210 10 0 60455 61200.00000 0 20708822.047 -13867022.066 5630506.502 10 0 60455 62100.00000 0 19943829.490 -13408577.224 8690724.230 10 0 60455 63000.00000 0 18959915.309 -12633496.387 11583051.440 10 0 60455 63900.00000 0 17814533.536 -11528547.638 14251709.454 10 0 60455 64800.00000 0 16568415.860 -10093185.637 16645257.234 10 0 60455 65700.00000 0 15282975.221 -8339818.644 18717560.433 10 0 60455 66600.00000 0 14017703.011 -6293544.875 20428659.597 10 0 60455 67500.00000 0 12827666.604 -3991368.523 21745522.924 10 0 60455 68400.00000 0 11761209.505 -1480926.513 22642670.958 10 0 60455 69300.00000 0 10857948.066 1181223.358 23102662.571 10 0 60455 70200.00000 0 10147146.681 3931684.810 23116433.767 10 0 60455 71100.00000 0 9646538.278 6702592.989 22683482.908 10 0 60455 72000.00000 0 9361639.092 9424177.076 21811898.210 10 0 60455 72900.00000 0 9285586.986 12027412.666 20518225.661 10 0 60455 73800.00000 0 9399511.443 14446656.655 18827177.973 10 0 60455 74700.00000 0 9673421.754 16622157.263 16771187.724 10 0 60455 75600.00000 0 10067578.538 18502335.962 14389810.623 10 0 60455 76500.00000 0 10534293.355 20045746.424 11728987.651 10 0 60455 77400.00000 0 11020082.858 21222627.918 8840177.839 10 0 60455 78300.00000 0 11468088.182 22015986.649 5779376.384 10 0 60455 79200.00000 0 11820658.159 22422157.625 2606035.651 10 0 60455 80100.00000 0 12021986.825 22450821.138 -618090.589 10 0 60455 81000.00000 0 12020692.318 22124470.970 -3830157.117 10 0 60455 81900.00000 0 11772225.678 21477354.990 -6967466.905 10 0 60455 82800.00000 0 11241004.564 20553931.704 -9968714.616 10 0 60455 83700.00000 0 10402178.067 19406907.720 -12775207.563 10 0 60455 84600.00000 0 9242944.409 18094939.607 -15332037.827 10 0 60455 85500.00000 0 7763362.487 16680098.656 -17589180.086 99